Santa Ynez, CA

8:01 PM PDT on May 28, 2017 (GMT -0700)
Santa Ynez

Weather History for KIZA - February, 2013

Change the Weather History Date:

Tuesday, February 12, 2013

  Actual Average (KSBA) Record (KSBA)
Temperature  
Mean Temperature 47 °F -  
Max Temperature 62 °F 64 °F 83 °F (1943)
Min Temperature 32 °F 42 °F 30 °F (1999)
Degree Days  
Heating Degree Days 18    
Moisture  
Dew Point 34 °F    
Average Humidity 71    
Maximum Humidity 93    
Minimum Humidity 30    
Precipitation  
Precipitation 0.00 in - - ()
Sea Level Pressure  
Sea Level Pressure 30.29 in    
Wind  
Wind Speed 3 mph (NNW)    
Max Wind Speed 14 mph    
Max Gust Speed 9 mph    
Visibility 10 miles    
Events      
Averages and records for this station are not official NWS values.
T = Trace of Precipitation, MM = Missing Value Source: NWS Daily Summary

Daily Weather History Graph

Daily Weather History Graph

Search for Another Location

Airport or City:

Trip Planner

Search our weather history database for the weather conditions in past years. The results will help you decide how hot, cold, wet, or windy it might be!

Date:

Astronomy

Feb. 12, 2013 Rise Set
Actual Time 6:48 AM PST 5:41 PM PST
Civil Twilight 6:22 AM PST 6:06 PM PST
Nautical Twilight 5:52 AM PST 6:36 PM PST
Astronomical Twilight 5:23 AM PST 7:05 PM PST
Moon 7:57 AM PST (2/12) 8:36 PM PST (2/12)
Length of Visible Light 11h 44m
Length of Day
10h 52m
Waxing Crescent, 8% of the Moon is Illuminated
Feb 12
Waxing Crescent
Feb 17
First Quarter
Feb 25
Full
Mar 4
Last Quarter
Mar 11
New

Hourly Weather History & Observations

Time (PST) Temp. Windchill Dew Point Humidity Pressure Visibility Wind Dir Wind Speed Gust Speed Precip Events Conditions
12:15 AM 33.8 °F 30.8 °F 32.0 °F 93% 30.26 in 10.0 mi NE 3.5 mph - N/A   Clear
12:35 AM 33.8 °F 30.8 °F 32.0 °F 93% 30.27 in 10.0 mi ENE 3.5 mph - N/A   Clear
12:55 AM 33.8 °F 28.6 °F 32.0 °F 93% 30.27 in 10.0 mi ENE 5.8 mph - N/A   Clear
1:15 AM 35.6 °F 32.8 °F 32.0 °F 87% 30.27 in 10.0 mi East 3.5 mph - N/A   Clear
1:35 AM 33.8 °F 30.8 °F 32.0 °F 93% 30.26 in 10.0 mi ENE 3.5 mph - N/A   Clear
1:55 AM 35.6 °F 32.8 °F 32.0 °F 87% 30.26 in 10.0 mi East 3.5 mph - N/A   Clear
2:15 AM 35.6 °F 32.8 °F 32.0 °F 87% 30.27 in 10.0 mi East 3.5 mph - N/A   Clear
2:35 AM 33.8 °F 29.6 °F 30.2 °F 87% 30.27 in 10.0 mi NE 4.6 mph - N/A   Clear
2:55 AM 33.8 °F 30.8 °F 32.0 °F 93% 30.27 in 10.0 mi East 3.5 mph - N/A   Clear
3:15 AM 33.8 °F 30.8 °F 30.2 °F 87% 30.27 in 10.0 mi ESE 3.5 mph - N/A   Clear
3:35 AM 33.8 °F - 32.0 °F 93% 30.27 in 10.0 mi Calm Calm - N/A   Clear
3:55 AM 33.8 °F 30.8 °F 30.2 °F 87% 30.27 in 10.0 mi NNE 3.5 mph - N/A   Clear
4:15 AM 32.0 °F 28.7 °F 30.2 °F 93% 30.27 in 10.0 mi NNE 3.5 mph - N/A   Clear
4:35 AM 33.8 °F - 32.0 °F 93% 30.27 in 10.0 mi Calm Calm - N/A   Clear
4:55 AM 33.8 °F - 30.2 °F 87% 30.28 in 10.0 mi Calm Calm - N/A   Clear
5:15 AM 32.0 °F - 30.2 °F 93% 30.28 in 10.0 mi Calm Calm - N/A   Clear
5:35 AM 33.8 °F 30.8 °F 30.2 °F 87% 30.28 in 10.0 mi ESE 3.5 mph - N/A   Clear
5:55 AM 32.0 °F 28.7 °F 28.4 °F 87% 30.28 in 10.0 mi NNE 3.5 mph - N/A   Clear
6:15 AM 32.0 °F 27.5 °F 30.2 °F 93% 30.29 in 10.0 mi NE 4.6 mph - N/A   Clear
6:35 AM 32.0 °F - 28.4 °F 87% 30.29 in 10.0 mi Calm Calm - N/A   Clear
6:55 AM 32.0 °F - 28.4 °F 87% 30.30 in 10.0 mi Calm Calm - N/A   Clear
7:15 AM 32.0 °F - 30.2 °F 93% 30.31 in 10.0 mi Calm Calm - N/A   Clear
7:35 AM 32.0 °F - 30.2 °F 93% 30.32 in 10.0 mi Calm Calm - N/A   Clear
7:55 AM 33.8 °F - 30.2 °F 87% 30.33 in 10.0 mi Calm Calm - N/A   Clear
8:15 AM 37.4 °F - 32.0 °F 81% 30.33 in 10.0 mi Calm Calm - N/A   Clear
8:35 AM 39.2 °F - 32.0 °F 75% 30.33 in 10.0 mi Calm Calm - N/A   Clear
8:55 AM 41.0 °F - 33.8 °F 76% 30.34 in 10.0 mi Calm Calm - N/A   Clear
9:15 AM 42.8 °F - 35.6 °F 76% 30.35 in 10.0 mi Calm Calm - N/A   Clear
9:35 AM 44.6 °F - 33.8 °F 66% 30.36 in 10.0 mi Calm Calm - N/A   Clear
9:55 AM 46.4 °F - 33.8 °F 62% 30.35 in 10.0 mi Calm Calm - N/A   Clear
10:15 AM 48.2 °F - 33.8 °F 58% 30.35 in 10.0 mi Calm Calm - N/A   Clear
10:35 AM 51.8 °F - 33.8 °F 50% 30.35 in 10.0 mi Calm Calm - N/A   Clear
10:55 AM 53.6 °F - 33.8 °F 47% 30.35 in 10.0 mi Calm Calm - N/A   Clear
11:15 AM 55.4 °F - 32.0 °F 41% 30.34 in 10.0 mi Calm Calm - N/A   Clear
11:35 AM 59.0 °F - 33.8 °F 39% 30.33 in 10.0 mi WSW 4.6 mph - N/A   Clear
11:55 AM 59.0 °F - 32.0 °F 36% 30.32 in 10.0 mi West 5.8 mph - N/A   Clear
12:15 PM 60.8 °F - 32.0 °F 34% 30.32 in 10.0 mi West 5.8 mph - N/A   Clear
12:35 PM 60.8 °F - 30.2 °F 31% 30.30 in 10.0 mi West 4.6 mph - N/A   Clear
12:55 PM 60.8 °F - 30.2 °F 31% 30.29 in 10.0 mi West 3.5 mph - N/A   Clear
1:15 PM 62.6 °F - 30.2 °F 30% 30.28 in 10.0 mi NNW 3.5 mph - N/A   Clear
1:35 PM 62.6 °F - 30.2 °F 30% 30.28 in 10.0 mi NNW 3.5 mph - N/A   Clear
1:55 PM 62.6 °F - 32.0 °F 32% 30.27 in 10.0 mi West 5.8 mph - N/A   Clear
2:15 PM 62.6 °F - 32.0 °F 32% 30.27 in 10.0 mi NW 9.2 mph - N/A   Clear
2:35 PM 62.6 °F - 32.0 °F 32% 30.26 in 10.0 mi North 8.1 mph - N/A   Clear
2:55 PM 62.6 °F - 33.8 °F 34% 30.26 in 10.0 mi WNW 11.5 mph - N/A   Clear
3:15 PM 62.6 °F - 33.8 °F 34% 30.26 in 10.0 mi WNW 10.4 mph - N/A   Clear
3:35 PM 62.6 °F - 33.8 °F 34% 30.26 in 10.0 mi West 10.4 mph - N/A   Clear
3:55 PM 60.8 °F - 33.8 °F 36% 30.25 in 10.0 mi West 13.8 mph - N/A   Clear
4:15 PM 60.8 °F - 35.6 °F 39% 30.25 in 10.0 mi WNW 9.2 mph - N/A   Clear
4:35 PM 59.0 °F - 33.8 °F 39% 30.25 in 10.0 mi NW 8.1 mph - N/A   Clear
4:55 PM 59.0 °F - 35.6 °F 42% 30.25 in 10.0 mi WNW 9.2 mph - N/A   Clear
5:15 PM 55.4 °F - 37.4 °F 51% 30.25 in 10.0 mi West 8.1 mph - N/A   Clear
5:35 PM 51.8 °F - 37.4 °F 58% 30.26 in 10.0 mi West 5.8 mph 9.2 mph N/A   Clear
6:15 PM 48.2 °F - 37.4 °F 66% 30.27 in 10.0 mi West 5.8 mph - N/A   Clear
6:35 PM 46.4 °F 42.9 °F 39.2 °F 76% 30.27 in 10.0 mi West 6.9 mph - N/A   Clear
6:55 PM 46.4 °F 42.9 °F 41.0 °F 81% 30.28 in 10.0 mi West 6.9 mph - N/A   Clear
7:15 PM 44.6 °F 42.2 °F 41.0 °F 87% 30.28 in 10.0 mi WSW 4.6 mph - N/A   Clear
7:35 PM 46.4 °F 44.3 °F 39.2 °F 76% 30.28 in 10.0 mi WSW 4.6 mph - N/A   Clear
7:55 PM 46.4 °F - 41.0 °F 81% 30.29 in 10.0 mi Calm Calm - N/A   Clear
8:15 PM 46.4 °F 45.2 °F 41.0 °F 81% 30.29 in 10.0 mi West 3.5 mph - N/A   Clear
8:35 PM 44.6 °F - 41.0 °F 87% 30.29 in 10.0 mi Calm Calm - N/A   Clear
8:55 PM 42.8 °F - 41.0 °F 93% 30.29 in 10.0 mi Calm Calm - N/A   Clear
9:15 PM 41.0 °F - 37.4 °F 87% 30.30 in 10.0 mi Calm Calm - N/A   Clear
9:35 PM 41.0 °F - 37.4 °F 87% 30.30 in 10.0 mi Calm Calm - N/A   Clear
9:55 PM 41.0 °F 36.4 °F 37.4 °F 87% 30.30 in 10.0 mi ESE 6.9 mph - N/A   Clear
10:15 PM 41.0 °F 39.0 °F 37.4 °F 87% 30.30 in 10.0 mi ENE 3.5 mph - N/A   Clear
10:35 PM 39.2 °F 35.0 °F 35.6 °F 87% 30.30 in 10.0 mi East 5.8 mph - N/A   Clear
10:55 PM 39.2 °F - 35.6 °F 87% 30.30 in 10.0 mi Calm Calm - N/A   Clear
11:15 PM 37.4 °F 34.9 °F 35.6 °F 93% 30.29 in 10.0 mi NE 3.5 mph - N/A   Clear
11:35 PM 37.4 °F 34.9 °F 35.6 °F 93% 30.30 in 10.0 mi NE 3.5 mph - N/A   Clear
11:55 PM 37.4 °F - 33.8 °F 87% 30.30 in 10.0 mi Calm Calm - N/A   Clear